Location: Dennis Manor
(64.8292°N, 147.5397°W)
Time: 08:58:33
(UTC+00:00)

Envisat - Pass Details

Date: 29 October 2020
Orbit: 764 x 766 km, 98.1° (Epoch: 05 December)

Event Time Altitude Azimuth Distance (km) Brightness Sun altitude
Rises 15:40:11 0° 18° (NNE) 3,251 6.4 -11.8°
Reaches altitude 10° 15:42:36 10° 25° (NNE) 2,320 5.7 -11.5°
Maximum altitude 15:47:32 47° 99° (E) 1,019 4.2 -11.0°
Drops below altitude 10° 15:52:26 10° 173° (S) 2,305 5.7 -10.5°
Sets 15:54:49 0° 179° (S) 3,227 6.4 -10.2°
